Wind_Speed
64 63 60 59 59 58 58 58 59 62 64 65 64 63 63 63 63 64 64 64 63 62 61 60 60 59 59 57 56 56 57 55 54 53 52 52 50 48 46 44 43 43 42 42 42 43 45 46 47 47 47 46 44 43 43 42 42 43 44 46 48 50 52 53 55 56 57 57 57 57 57 58 60 61 61 60 60 58 56 54 53 51 50 49 49
66 63 62 61 59 58 58 58 58 58 61 65 66 67 67 67 67 67 67 66 64 63 62 61 60 59 58 56 55 56 56 53 52 52 51 50 48 46 45 43 43 42 42 42 43 44 46 47 47 47 46 45 44 44 44 44 44 44 45 47 49 51 53 55 56 56 57 57 57 57 58 59 61 61 61 60 59 57 55 54 52 50 50 49 48
67 65 65 63 60 58 58 58 57 57 58 60 63 65 66 67 67 67 66 65 64 62 61 60 59 58 56 55 54 54 54 51 50 50 49 48 47 45 44 43 42 42 42 43 44 46 47 47 46 46 45 44 44 44 45 45 45 45 46 47 50 52 54 55 56 57 56 57 58 58 58 60 61 61 61 60 58 56 54 53 51 50 49 48 47
68 68 68 65 61 59 58 58 58 58 57 57 58 59 61 62 63 62 61 60 59 59 58 58 57 55 53 53 52 53 52 51 50 49 48 47 46 44 43 43 43 43 44 45 47 47 48 47 46 46 45 44 44 44 45 45 46 47 47 48 51 53 55 56 56 56 56 57 59 59 59 61 61 61 61 59 57 55 53 51 50 49 48 46 45
69 70 68 65 63 61 60 59 58 57 58 57 57 56 56 58 59 58 57 56 56 56 56 55 54 53 52 52 52 51 51 51 50 48 46 45 44 44 43 43 44 44 45 47 48 48 48 47 47 46 46 45 44 44 44 45 46 48 48 50 52 53 55 55 55 55 55 58 60 60 60 61 62 61 60 57 55 53 52 51 49 48 46 45 44
70 70 68 65 64 63 63 61 58 57 57 57 57 56 56 56 57 56 55 55 54 53 53 53 52 51 51 51 51 51 51 51 49 46 44 44 44 44 44 44 45 46 47 48 48 48 47 47 47 46 45 45 44 43 43 45 47 49 50 52 53 54 54 54 54 54 56 60 61 60 61 61 61 60 58 56 54 52 51 50 48 47 45 45 44
70 70 69 66 65 65 64 62 59 57 57 58 58 57 56 55 54 55 54 53 52 50 50 50 49 49 49 50 50 50 50 49 47 44 44 44 44 44 45 46 47 48 48 48 48 47 46 46 46 45 44 43 42 42 44 46 48 50 52 53 53 53 53 53 54 55 58 60 61 60 61 61 60 58 56 54 53 51 50 49 47 46 45 45 45
67 69 69 67 66 65 64 62 60 58 58 59 58 57 58 56 54 53 53 52 50 49 48 48 48 48 48 48 48 48 47 47 45 44 44 44 44 45 46 47 47 48 47 47 47 46 45 44 43 43 42 41 42 45 46 48 50 52 52 52 52 52 53 53 54 56 59 60 61 61 60 60 58 56 54 52 51 50 49 47 46 45 44 45 46
63 66 68 68 67 66 65 64 61 60 60 59 59 59 59 57 56 55 54 51 50 49 49 48 48 48 47 47 47 46 46 46 45 44 44 45 45 46 47 47 47 47 47 47 46 44 44 44 44 44 43 44 47 49 49 50 52 52 52 52 51 52 53 53 55 57 59 60 61 61 60 58 56 54 52 51 50 49 48 47 45 44 44 45 46
63 63 65 66 67 67 67 65 63 61 60 60 61 61 59 58 59 58 55 52 51 51 50 49 49 48 47 47 47 46 46 46 45 45 46 46 47 48 48 47 46 46 46 46 44 42 42 43 44 45 46 48 49 50 50 51 52 52 52 52 52 53 53 54 57 59 60 61 61 59 57 56 54 53 51 50 49 48 47 46 45 44 44 45 47
64 63 63 63 65 67 68 67 64 62 61 60 61 60 59 60 62 59 54 53 53 52 51 51 50 49 48 48 47 47 47 46 46 46 47 47 48 48 47 46 45 46 46 45 43 41 41 42 44 46 47 48 49 49 50 51 51 51 52 53 54 54 54 56 59 60 61 62 60 57 55 54 52 51 50 49 49 48 47 46 45 44 45 46 48
63 63 63 63 63 65 67 67 66 64 61 60 60 59 60 61 61 57 54 54 53 52 51 51 50 49 48 48 47 47 47 47 47 47 47 47 48 48 47 46 46 46 46 45 44 43 43 44 45 46 47 48 48 50 50 51 52 52 53 53 54 54 56 58 60 61 62 60 58 55 54 52 51 51 50 49 49 48 47 46 45 45 46 47 48
63 63 63 63 63 62 64 65 66 64 62 61 60 60 61 61 60 58 57 56 53 52 51 52 51 49 49 48 48 48 48 48 48 48 48 48 48 48 48 47 47 47 47 46 46 45 44 44 44 45 46 48 49 50 51 52 53 54 54 54 54 56 58 61 61 61 60 58 55 54 52 52 51 50 49 49 48 48 47 46 45 46 47 48 49
64 63 63 63 63 62 61 62 63 63 63 63 62 62 63 63 63 62 59 57 54 52 52 52 51 50 49 49 49 50 50 50 49 49 49 49 49 49 48 47 47 47 47 46 45 44 44 45 45 47 48 50 50 51 52 53 54 54 54 55 57 59 61 61 61 60 58 55 54 52 52 51 50 50 49 48 48 47 47 46 46 47 48 49 50
65 63 63 62 62 62 62 61 60 61 63 63 63 63 65 65 66 64 60 57 55 54 53 53 52 51 51 51 52 52 52 51 51 51 50 50 50 49 48 47 47 47 45 42 43 44 45 46 48 49 50 50 51 52 53 54 54 55 57 59 61 61 60 59 59 57 55 53 53 52 52 51 50 49 49 49 48 48 47 47 47 48 49 50 51
66 64 62 61 61 62 62 60 59 59 61 61 61 63 66 68 67 63 60 59 57 55 55 55 54 53 53 53 53 53 53 53 52 52 52 50 50 50 48 48 48 48 46 45 45 46 46 47 48 49 49 50 51 52 54 55 56 58 60 61 60 58 57 56 55 54 53 52 52 52 51 50 50 49 49 48 48 48 48 48 48 49 49 51 52
69 66 63 61 60 60 60 60 58 57 58 58 60 63 67 69 67 64 62 60 58 57 56 56 55 55 54 54 54 54 53 54 54 53 52 51 50 50 49 49 49 49 49 48 47 47 47 48 48 49 49 50 52 53 55 57 59 60 60 59 57 55 54 53 52 52 52 52 52 51 51 50 49 49 49 49 49 49 49 49 49 50 50 51 52
72 68 65 62 60 58 58 58 57 56 56 58 62 65 68 67 65 62 61 60 59 58 57 56 56 56 55 54 54 55 54 54 54 54 53 52 51 50 50 50 51 51 50 49 48 47 47 47 48 49 50 51 53 55 57 59 59 58 57 55 53 52 51 50 50 51 51 51 51 51 51 50 50 49 49 49 49 49 50 50 50 50 51 52 53
74 70 66 63 60 58 57 57 56 56 57 59 63 65 65 63 61 59 59 58 58 56 56 55 56 56 55 53 54 55 55 55 55 54 53 52 51 51 51 52 52 52 52 51 50 48 47 48 49 51 52 54 56 57 57 56 55 54 52 50 49 48 49 49 50 50 51 51 51 51 50 50 50 50 50 50 50 50 50 50 51 51 52 53 54
76 72 67 64 61 59 57 57 56 56 57 60 62 61 59 58 56 55 55 54 53 53 53 54 55 55 53 52 54 55 55 54 54 53 52 52 51 51 52 53 54 54 53 52 50 49 50 51 52 54 54 55 54 53 52 51 50 49 47 46 47 47 48 48 49 49 50 50 50 50 50 50 50 50 50 50 51 51 51 51 51 52 53 54 55
77 73 68 64 61 59 58 58 58 58 59 59 58 57 54 53 51 51 50 49 49 49 50 51 52 52 51 50 52 53 53 53 52 51 50 50 51 51 52 53 53 53 52 51 51 51 51 52 52 52 51 51 49 48 48 47 46 45 45 46 47 47 46 46 47 47 48 49 49 49 50 50 51 51 51 51 52 52 52 52 52 53 53 55 56
78 74 69 65 61 59 59 59 59 59 57 56 56 55 52 50 49 49 47 46 46 46 47 48 48 48 47 47 48 49 49 48 47 46 46 48 48 49 50 50 50 49 49 49 49 49 49 49 48 47 47 46 45 45 44 44 44 45 46 46 45 44 43 44 45 46 47 48 48 49 50 51 51 51 52 52 53 53 53 52 52 53 54 56 57
78 74 70 66 62 61 60 60 59 57 55 55 56 54 52 50 49 47 46 45 45 44 45 46 45 44 44 44 44 44 44 43 42 42 42 44 45 45 46 46 45 44 45 45 45 45 45 45 44 44 43 42 42 42 42 43 45 45 45 43 41 41 43 44 45 46 47 47 48 49 50 51 52 52 53 53 53 53 52 51 52 53 55 57 58
78 75 71 67 64 63 62 60 57 55 54 54 54 52 50 49 47 46 46 44 44 44 43 43 43 43 43 42 41 41 40 40 39 39 39 41 42 42 41 41 41 41 41 42 42 42 42 41 41 40 39 39 40 41 42 42 42 42 40 39 40 42 43 43 44 45 45 46 47 49 50 52 53 53 53 52 52 51 51 52 54 55 56 58 58
77 75 72 69 67 65 63 60 56 54 54 53 51 49 48 47 46 46 45 44 43 42 42 42 43 42 39 38 38 38 37 37 37 37 38 38 38 37 38 38 39 39 39 39 39 39 38 37 37 37 37 38 39 39 39 39 39 38 38 39 40 42 41 42 43 44 46 47 48 50 53 54 54 53 52 52 52 52 53 54 54 55 57 58 59
75 75 74 71 69 66 63 59 56 55 55 53 50 48 46 46 45 45 44 43 42 41 41 42 40 37 34 34 35 35 35 35 35 35 36 35 34 35 36 37 37 36 35 35 36 35 35 35 36 36 36 36 36 37 37 37 38 37 37 39 41 40 40 41 43 46 48 49 50 53 55 55 55 54 53 53 53 53 54 54 55 56 58 59 60
74 75 74 73 70 66 63 60 59 57 56 54 51 48 46 45 44 43 43 42 41 41 41 39 36 33 32 33 34 34 33 32 33 33 32 31 32 34 35 36 36 35 35 35 34 33 34 35 35 34 34 34 36 36 36 36 37 36 37 40 41 39 40 43 47 49 51 51 52 55 57 57 56 56 55 54 54 55 55 56 56 57 59 60 60
74 74 74 73 70 66 64 63 62 60 58 56 52 48 45 44 44 43 43 42 41 40 39 36 33 31 32 33 34 32 30 30 30 29 28 29 30 32 34 34 35 36 35 34 33 34 34 34 33 33 33 35 35 35 34 35 35 36 38 41 40 40 42 46 49 52 53 52 54 58 60 60 59 59 58 57 57 58 58 58 58 59 59 59 59
74 74 74 73 71 68 66 66 64 62 60 57 53 49 46 45 44 43 43 42 40 39 38 35 33 32 33 34 32 30 28 28 28 28 28 28 30 31 32 33 33 34 34 34 33 33 34 33 32 33 35 35 34 34 34 35 36 37 40 40 40 41 45 48 51 53 54 54 57 60 62 62 62 61 60 59 59 59 59 59 59 59 58 57 58
75 73 74 74 72 70 69 68 66 64 61 58 55 51 48 47 46 44 43 42 41 40 38 36 34 34 34 33 31 29 28 29 30 30 30 30 31 32 32 32 33 34 34 33 32 32 32 31 32 34 34 33 33 34 37 38 38 38 40 40 41 44 47 50 53 54 55 57 59 60 61 62 62 61 60 59 60 60 60 59 59 58 58 59 61
75 74 75 75 74 71 70 69 67 64 62 60 57 53 51 49 47 45 45 44 42 41 39 37 35 35 34 33 32 31 30 31 33 32 32 32 33 34 33 33 34 35 34 33 31 31 31 32 33 33 32 32 34 37 40 40 38 38 40 41 43 46 49 52 53 55 58 59 60 60 60 61 61 60 60 60 61 61 60 60 60 60 61 62 63
77 75 76 76 75 72 70 69 67 65 64 62 59 56 53 50 49 47 47 46 44 41 40 38 36 36 35 35 34 32 32 33 35 34 34 34 35 35 35 35 36 34 33 33 31 31 32 33 32 32 33 34 35 37 40 39 37 38 40 42 44 48 51 53 54 57 60 60 60 61 62 62 61 61 61 61 61 62 61 62 62 63 63 63 63
79 77 76 76 75 73 71 70 70 68 65 64 60 57 54 52 51 49 48 47 44 42 41 39 38 37 37 37 35 33 33 35 36 36 35 36 36 36 36 37 36 34 33 33 31 31 32 32 32 33 34 34 35 36 37 36 37 39 41 42 46 50 53 56 57 59 60 60 61 62 63 62 62 63 63 62 62 63 64 64 64 64 63 63 62
80 77 76 76 76 74 72 72 71 70 68 66 63 59 57 54 50 48 47 46 44 41 41 40 39 39 39 39 37 35 34 36 37 37 37 38 38 38 38 38 36 34 32 29 28 30 32 32 33 34 35 36 36 37 36 36 37 40 42 44 47 51 56 59 60 62 62 62 63 64 64 64 64 65 64 62 64 67 68 67 66 65 64 62 61
80 77 77 77 77 75 74 73 73 72 70 67 64 62 58 54 51 49 47 46 44 42 42 43 42 41 41 41 39 37 36 37 39 38 38 39 40 40 39 38 36 33 29 25 26 30 32 32 33 35 38 41 39 36 35 36 38 42 45 47 49 53 58 60 61 64 64 64 65 65 66 66 67 68 66 64 67 71 71 69 68 66 65 63 61
80 78 77 78 78 77 76 75 74 73 70 67 65 62 58 55 52 49 47 46 45 45 45 45 45 44 43 43 41 39 38 39 40 41 40 41 41 41 40 38 36 32 27 25 26 28 30 32 34 37 41 42 38 35 35 38 42 47 48 48 52 57 60 60 62 65 65 66 66 66 67 68 69 70 67 66 70 72 70 70 69 67 65 62 60
81 78 78 79 79 78 77 76 75 73 70 66 63 60 57 54 51 49 48 48 47 47 48 48 47 46 46 45 44 42 40 41 43 42 42 42 42 41 40 38 35 31 29 27 25 26 28 32 34 36 38 39 37 36 37 41 46 48 47 50 56 59 59 61 65 66 66 68 68 67 68 70 71 71 68 69 72 70 69 71 70 66 64 61 58
81 78 78 80 81 80 78 77 75 73 69 66 63 60 57 54 52 51 51 50 49 50 51 51 50 49 48 47 46 44 43 44 44 44 44 43 42 41 40 39 35 32 30 28 24 24 28 30 32 33 36 39 41 41 43 46 47 45 47 54 59 58 58 63 67 67 68 69 68 68 69 72 73 71 70 72 73 69 70 73 69 63 61 58 56
81 78 78 81 83 81 78 76 75 72 69 66 63 60 58 55 54 54 53 51 52 53 54 54 52 51 50 49 48 46 45 45 45 46 45 44 43 42 41 40 36 33 31 27 22 24 30 31 29 31 38 43 46 48 49 48 46 48 53 57 57 57 60 66 68 69 70 70 69 69 71 73 74 72 71 73 72 69 71 74 67 60 58 56 55
80 79 79 81 82 80 78 76 75 73 70 67 65 62 59 58 57 56 54 53 55 56 57 55 54 52 51 50 49 48 47 47 47 47 46 45 44 43 42 41 38 34 32 27 22 24 31 32 30 34 42 49 51 52 52 48 48 53 57 56 56 59 63 67 70 71 71 70 70 70 71 73 75 73 72 72 71 70 73 72 63 58 56 55 55
80 79 79 80 81 80 79 77 75 73 70 68 65 63 62 61 59 57 55 57 58 58 56 55 54 53 53 52 51 49 49 49 48 48 47 45 45 45 44 42 39 36 33 29 26 27 31 34 34 37 44 49 51 52 52 51 52 55 56 56 59 62 65 69 71 72 72 71 71 71 71 74 75 74 72 71 71 73 73 68 61 57 56 56 56
79 79 79 79 80 81 80 77 75 72 70 68 66 64 64 63 59 57 59 60 59 56 55 54 53 53 53 53 52 51 50 48 48 48 48 47 46 47 45 43 42 40 35 31 30 31 34 36 38 41 45 47 48 49 52 53 55 57 57 58 61 64 68 71 72 73 72 72 72 72 72 74 75 73 71 71 72 74 72 66 59 57 56 56 57
79 78 77 78 80 81 80 78 75 72 70 69 66 65 65 62 60 60 62 60 57 55 53 50 49 49 50 49 49 49 48 47 48 49 49 48 47 46 46 46 46 43 38 34 34 34 34 35 38 41 43 44 46 49 52 53 55 57 59 61 64 68 70 72 73 73 72 72 72 72 72 74 75 73 71 72 72 73 70 64 58 57 56 56 57
79 77 75 76 78 80 80 79 76 74 72 70 68 67 65 63 62 63 63 60 58 55 49 42 39 41 44 44 45 46 46 47 49 49 49 48 46 46 47 49 47 44 40 38 36 35 33 33 35 37 40 43 47 51 52 53 55 59 62 65 68 70 71 72 72 72 71 71 71 70 71 75 75 73 71 72 72 72 68 63 58 57 57 57 58
79 78 76 75 76 78 80 79 77 75 73 71 69 68 66 65 65 65 63 61 59 54 44 36 36 41 45 45 44 44 44 46 48 48 47 47 46 46 47 45 42 41 42 41 39 37 35 34 36 40 44 48 53 56 56 57 59 61 65 68 69 70 71 71 71 70 70 71 70 69 72 75 75 73 72 72 71 71 67 62 58 58 58 58 58
80 78 76 74 73 74 75 76 76 75 74 72 71 69 68 68 68 67 64 62 57 50 42 38 42 49 50 47 42 40 42 45 45 45 46 46 46 45 43 39 37 37 40 40 38 36 35 34 40 47 50 53 58 60 59 60 62 64 66 67 68 69 69 69 69 70 69 69 68 69 72 74 74 73 73 72 71 69 65 60 58 59 59 58 58
79 77 75 72 70 69 69 71 73 74 74 73 72 72 71 71 70 69 66 61 55 50 47 47 51 53 50 46 43 43 46 49 49 47 45 44 45 46 43 39 35 35 36 38 37 35 32 33 42 51 54 55 58 59 60 61 63 64 65 66 67 67 67 67 68 68 68 68 68 69 72 74 75 74 73 72 70 68 65 60 58 59 59 59 58
77 76 73 70 68 66 65 66 66 68 69 71 72 72 72 72 70 68 64 59 55 54 54 55 55 52 47 46 47 49 52 54 53 52 49 47 50 52 50 45 40 37 38 42 44 41 37 37 43 49 50 50 52 53 55 57 59 62 65 67 67 67 66 67 67 67 67 67 68 69 73 75 76 75 73 72 71 69 65 61 59 60 59 58 58
76 74 72 70 69 67 66 64 63 62 63 63 64 65 66 65 64 62 60 58 60 61 60 59 56 51 47 47 48 51 54 55 53 53 53 53 55 57 56 53 49 44 41 42 46 46 45 45 48 49 49 49 51 54 56 58 61 65 67 67 67 66 66 66 65 65 66 67 68 70 73 75 75 74 73 72 72 70 66 61 59 59 58 56 56
76 75 73 72 71 69 68 66 63 61 60 58 57 57 59 60 59 59 60 61 63 64 62 59 56 51 46 45 46 47 51 54 54 54 54 56 57 57 58 57 54 49 45 43 43 45 47 48 51 53 53 55 57 59 61 63 65 66 66 65 66 66 65 64 64 64 66 67 69 72 74 74 74 73 72 72 72 70 65 60 59 59 57 54 54
75 75 74 73 72 70 69 67 65 62 61 60 59 59 59 58 57 58 61 62 62 61 59 57 55 51 45 40 39 42 46 50 53 55 57 60 61 60 61 61 57 53 51 50 47 47 48 50 53 55 57 59 60 61 63 64 65 65 65 65 65 65 64 63 63 64 66 69 71 73 74 74 73 72 72 72 70 67 63 61 60 59 57 53 52
Wind_Direction
236 237 238 239 239 240 241 243 243 242 242 244 247 249 251 254 256 258 260 261 263 265 267 268 270 271 272 273 274 274 275 277 278 280 282 284 286 287 288 289 291 291 292 292 292 292 292 292 293 293 294 295 295 297 300 302 304 306 307 306 306 307 307 308 309 311 312 313 313 314 314 314 315 316 316 316 316 317 317 317 317 317 317 316 316
237 237 238 239 239 239 240 242 243 244 243 243 245 248 251 254 255 257 258 259 261 262 264 266 268 269 271 272 272 272 273 275 277 279 281 283 285 286 288 289 290 291 292 292 292 292 292 292 292 292 292 293 295 297 299 302 304 306 306 305 306 307 308 309 310 311 312 313 314 314 314 315 316 317 317 317 316 316 316 316 317 317 317 317 317
238 238 238 238 239 240 241 242 243 244 245 245 246 248 250 252 253 254 255 257 259 260 262 264 266 268 270 271 271 271 273 274 276 278 280 282 284 286 287 289 290 291 291 292 292 291 291 291 291 291 292 293 294 296 298 301 303 305 305 305 306 307 308 309 310 312 312 313 314 314 314 315 317 317 317 317 316 316 316 316 317 317 317 317 318
238 238 238 238 238 239 240 241 242 243 244 244 245 247 249 250 251 253 254 256 257 259 261 263 265 267 268 269 269 270 272 273 275 277 279 282 283 285 287 288 289 290 291 291 291 290 291 291 291 291 291 292 294 295 297 300 302 304 304 304 306 307 308 310 311 312 313 314 315 314 314 315 316 317 317 316 316 316 315 316 316 317 317 318 318
237 239 240 239 238 238 239 240 241 242 244 244 245 246 249 250 250 252 253 255 256 258 260 262 264 265 266 267 269 270 271 272 274 276 279 281 283 284 286 287 288 289 290 290 290 290 290 290 290 291 292 293 293 295 297 300 302 303 304 305 306 307 309 310 311 311 312 314 314 314 314 315 316 316 316 315 315 315 315 315 316 317 317 317 316
236 238 240 240 239 239 239 239 240 242 244 245 245 246 248 250 250 250 252 253 255 257 259 261 263 264 265 266 267 268 270 272 274 276 279 280 282 284 286 287 288 289 290 290 289 290 290 290 290 291 292 293 294 296 298 300 302 303 304 305 307 308 309 310 311 311 312 314 314 314 314 314 315 315 315 314 314 314 315 315 316 317 317 316 315
238 238 239 240 240 241 241 241 241 241 243 244 245 246 248 249 249 250 251 253 254 256 258 260 261 262 263 265 266 268 270 272 274 277 279 280 283 284 285 286 288 289 290 290 289 289 290 290 291 292 293 294 295 298 300 301 302 303 304 306 307 308 310 311 311 311 312 313 314 314 314 314 314 314 314 314 314 314 315 316 316 316 315 314 314
239 239 239 239 240 241 241 241 240 240 242 244 246 247 248 249 250 250 251 252 254 255 257 258 260 261 263 264 267 269 271 273 275 276 278 280 282 283 284 286 288 289 289 288 287 288 289 290 291 293 294 295 297 300 300 301 303 304 304 306 307 309 310 311 311 311 312 312 313 313 313 313 313 313 313 313 313 314 315 316 315 315 314 314 314
237 239 239 239 239 239 240 240 239 239 241 244 245 247 248 250 251 251 251 252 254 255 256 257 259 261 263 265 268 270 271 272 274 276 277 279 281 281 283 285 286 287 287 286 286 287 288 289 290 292 294 295 298 299 299 301 303 304 305 306 307 309 310 310 312 312 312 312 312 312 312 312 312 312 313 313 314 314 315 315 314 313 313 314 313
235 236 237 238 238 238 239 239 238 239 241 243 245 247 249 250 251 251 251 253 254 255 256 257 259 261 264 266 267 268 270 271 273 275 276 278 279 280 281 282 283 284 284 285 286 287 287 289 290 292 293 294 296 297 298 300 303 304 306 307 308 309 310 311 312 312 312 312 312 312 312 312 312 312 313 313 314 315 315 314 313 313 313 313 313
233 234 235 236 236 236 237 238 238 238 240 242 244 247 248 249 251 252 253 253 253 254 256 257 259 261 264 266 267 268 269 271 273 275 276 278 278 278 279 280 281 281 283 284 285 286 286 286 289 291 292 293 294 295 297 301 303 304 305 306 308 309 310 311 312 313 313 313 313 312 312 312 312 312 313 313 314 315 314 313 313 313 312 312 312
233 232 233 234 235 235 236 237 237 237 238 241 243 245 246 248 250 252 252 252 253 254 256 258 260 262 263 265 266 268 269 271 273 274 275 276 276 276 277 278 279 280 282 283 284 285 286 287 290 291 292 292 293 294 298 302 304 304 305 306 307 308 309 311 312 312 312 313 313 312 312 312 312 312 313 314 314 314 314 313 312 312 311 311 313
232 232 232 233 234 234 235 236 236 236 237 239 241 243 245 247 249 249 249 251 252 254 256 258 259 261 262 263 265 267 268 270 271 273 274 274 274 275 276 277 279 280 281 283 283 285 287 289 291 292 292 293 293 295 299 302 304 304 304 306 307 308 309 311 311 311 312 312 312 312 311 311 311 312 313 314 314 314 313 312 311 311 311 312 314
231 232 232 232 233 234 234 235 235 235 236 237 240 242 244 246 247 247 248 250 251 253 255 257 258 260 261 263 264 265 267 269 270 271 272 272 273 274 275 277 278 280 282 283 283 284 287 289 290 291 292 293 294 296 299 302 302 303 304 306 307 308 309 310 310 311 311 311 311 311 311 311 312 313 313 313 313 313 312 311 311 311 312 313 315
230 232 232 232 232 233 233 234 234 234 235 236 239 242 244 245 246 247 248 249 250 252 254 256 257 259 261 262 264 265 267 268 268 269 270 271 272 273 275 276 278 279 280 279 281 284 287 288 289 290 291 292 294 297 299 300 301 302 304 306 307 307 308 309 309 310 310 310 310 310 311 312 312 313 313 313 313 312 311 311 311 312 313 315 316
229 231 233 234 234 234 233 233 233 233 234 235 237 241 244 245 245 246 248 249 250 251 253 255 257 258 260 262 264 265 266 267 267 268 269 270 271 273 274 276 276 277 277 277 280 284 286 286 287 288 290 292 295 297 298 299 300 302 304 305 306 307 307 307 308 309 310 310 310 311 312 312 312 312 312 312 312 311 311 311 311 313 314 316 316
227 228 231 233 235 235 235 235 234 233 233 233 235 238 242 244 244 245 246 248 249 250 252 254 256 258 260 262 263 264 265 266 267 268 269 269 270 272 273 274 275 276 277 278 280 282 284 285 286 287 289 292 294 296 297 299 301 303 303 304 305 306 306 307 308 309 310 310 311 312 312 312 312 311 311 311 311 311 311 311 312 314 315 316 316
227 226 227 230 233 235 236 236 235 234 233 232 233 235 239 243 244 245 246 248 249 250 252 254 256 258 259 261 262 263 263 264 266 267 268 268 269 270 271 272 274 275 277 279 280 281 283 283 285 286 289 291 293 294 296 299 301 302 303 304 305 306 306 307 309 310 311 311 311 312 312 311 311 310 310 310 311 311 311 312 313 314 315 315 314
227 226 225 227 229 232 235 236 236 235 233 232 233 236 239 243 246 247 248 248 249 251 252 254 255 257 257 259 260 262 262 263 265 266 267 267 268 268 270 271 273 275 277 278 279 280 281 282 284 286 288 290 292 294 296 298 300 301 303 304 305 306 307 309 310 311 311 312 312 312 312 311 311 310 310 310 310 310 310 311 312 313 313 313 313
227 226 225 226 227 229 232 234 234 234 234 233 235 238 241 243 245 247 248 250 250 251 252 253 254 255 257 257 258 260 261 263 264 265 266 267 267 268 269 271 273 274 276 278 278 279 280 282 285 287 289 291 293 295 297 299 300 302 303 304 306 307 308 310 311 312 312 312 312 313 312 311 311 310 310 310 310 309 310 311 312 312 312 313 313
226 225 225 225 227 229 230 232 232 232 233 235 237 240 241 243 245 246 248 249 250 250 250 251 252 254 255 255 256 258 259 261 263 265 266 267 268 269 270 271 273 275 276 278 279 280 282 284 287 289 290 292 294 296 298 299 300 302 303 305 307 309 310 312 313 313 314 314 314 314 313 313 312 311 311 310 310 310 311 312 312 312 313 313 314
224 224 224 224 226 229 232 233 233 234 235 237 239 240 241 241 242 244 245 246 246 246 247 248 250 252 253 254 254 256 258 260 263 264 266 267 268 269 270 272 274 276 278 279 280 282 284 286 287 289 290 292 294 297 298 299 300 301 303 305 308 310 313 314 315 316 316 317 317 316 315 315 314 314 313 312 312 312 313 313 312 312 313 313 314
223 223 222 223 224 228 231 234 235 236 237 238 239 240 240 240 240 241 242 243 243 243 244 246 248 250 251 252 254 256 258 260 262 263 264 266 268 269 271 274 276 278 279 280 282 283 284 286 287 288 290 292 294 296 297 298 299 301 303 305 309 313 315 316 318 319 319 320 320 319 319 318 318 318 317 315 314 314 313 313 312 313 313 313 314
222 222 221 221 223 226 230 232 235 237 238 240 240 240 240 240 240 240 240 241 241 242 243 245 246 247 249 252 254 257 259 260 261 263 264 265 268 270 274 276 278 278 280 281 283 283 284 285 286 287 290 293 295 296 298 299 300 301 304 308 313 316 318 320 321 322 322 323 323 324 323 323 323 322 320 317 316 315 314 313 314 315 314 313 314
221 221 221 221 222 224 228 230 233 235 238 240 240 240 239 239 238 238 238 239 239 240 240 241 243 245 249 251 254 256 258 260 261 262 263 266 269 273 276 277 278 280 282 283 283 284 284 284 286 289 292 294 296 298 299 300 301 303 307 313 317 320 322 323 325 325 326 326 326 326 326 327 326 324 322 319 317 316 315 315 315 315 314 313 314
220 219 220 220 221 223 225 228 230 232 235 238 238 238 238 236 235 235 236 236 236 237 237 238 241 244 247 250 253 255 257 258 260 261 264 268 273 275 276 277 279 281 283 284 284 283 284 285 288 291 293 295 297 299 300 301 303 306 310 317 321 322 324 325 327 327 327 327 327 327 328 329 328 325 323 321 319 317 316 316 315 314 312 312 313
219 218 219 220 221 222 224 227 228 229 231 234 234 234 234 233 232 232 232 233 234 234 235 237 240 243 246 249 251 254 255 258 260 263 268 272 273 274 275 278 280 281 282 283 283 283 285 287 289 290 293 296 299 301 302 303 305 307 313 318 321 322 324 325 326 326 327 328 327 328 329 329 328 326 324 322 320 318 317 316 315 313 312 312 313
218 218 218 219 220 221 223 226 227 227 229 230 231 231 230 229 229 229 230 231 232 233 234 236 239 241 244 247 250 252 255 258 261 265 269 271 272 274 276 278 280 280 280 281 281 283 285 286 287 290 294 298 300 301 303 306 307 309 313 317 319 320 323 324 325 326 327 328 328 328 329 328 328 327 326 324 321 319 318 316 315 313 313 313 313
218 217 217 218 219 221 223 225 226 226 228 229 229 228 227 227 227 228 229 230 230 231 232 234 236 238 241 245 249 251 253 257 261 264 267 270 272 276 278 279 280 280 280 280 281 283 283 284 287 292 296 299 300 300 302 305 307 310 312 315 317 318 320 323 324 325 327 329 329 328 328 328 328 328 327 325 322 319 318 316 315 314 313 313 313
217 216 216 216 218 220 222 225 226 226 228 229 228 227 225 225 226 226 228 228 227 228 231 233 235 238 241 246 249 250 252 256 260 263 267 270 274 276 278 279 280 281 282 283 282 282 282 285 292 298 300 299 298 298 299 301 305 308 311 314 315 316 319 322 323 325 328 329 329 328 327 327 327 327 326 324 322 320 319 317 316 315 314 313 313
215 215 215 215 216 218 221 224 226 227 228 229 228 226 225 224 224 225 227 228 227 229 232 234 236 239 242 246 248 249 252 257 260 264 267 270 274 276 278 278 280 283 285 284 282 280 283 290 297 301 301 297 293 294 296 297 300 306 310 312 314 316 319 321 323 325 327 328 328 327 326 325 325 325 325 323 322 321 321 319 317 316 315 314 314
214 214 215 215 215 217 220 223 225 226 228 230 229 227 226 224 223 224 227 229 228 230 233 236 239 241 243 246 249 251 253 257 261 263 266 269 273 275 275 277 281 285 286 285 283 282 286 293 300 303 303 298 293 292 293 295 298 303 307 310 313 316 318 320 322 325 326 326 326 325 325 324 324 324 324 323 323 324 324 322 319 317 316 315 315
213 213 214 214 214 216 218 221 224 225 226 229 230 228 227 225 223 224 227 229 230 232 235 240 242 244 245 248 251 254 254 257 260 263 265 268 271 272 274 277 281 285 287 287 286 286 289 294 300 302 302 299 294 291 291 293 296 300 304 309 312 315 316 318 322 324 324 324 325 325 325 324 324 324 323 322 323 325 325 324 321 318 317 316 316
212 213 213 213 214 215 218 220 223 224 224 226 228 229 228 227 226 225 227 231 233 235 239 243 245 247 248 250 253 255 254 256 261 264 266 268 269 271 273 277 280 284 288 290 290 291 292 295 298 299 301 300 296 292 290 290 292 298 303 306 309 312 314 317 320 322 323 323 324 325 325 324 324 323 321 321 322 324 324 324 321 320 319 318 317
211 212 212 213 213 215 217 220 222 223 224 224 226 227 228 227 227 227 228 231 234 236 240 243 245 247 249 250 254 255 254 257 262 265 267 268 268 270 272 275 279 284 289 292 293 290 290 292 296 298 301 303 300 295 289 286 290 299 303 303 305 310 312 314 318 320 321 323 324 325 326 324 323 322 320 319 321 323 324 324 322 321 320 319 318
210 210 211 212 213 214 217 220 222 223 224 224 225 226 227 227 228 229 231 233 235 237 239 242 245 247 249 251 254 256 256 259 264 267 268 267 267 269 271 274 278 282 287 290 288 285 288 295 299 300 300 300 299 294 287 285 291 299 303 302 304 308 310 312 316 319 320 322 323 324 325 323 322 321 319 318 321 323 324 324 322 320 319 319 318
208 209 210 212 213 214 217 220 222 223 224 225 225 226 227 227 229 231 233 235 236 238 240 242 244 247 249 252 255 257 259 262 266 268 267 266 266 268 269 272 276 281 286 287 285 287 292 297 298 297 296 297 297 293 289 291 295 298 300 301 304 307 310 313 317 318 320 322 322 323 323 322 322 321 319 319 321 322 323 323 320 318 318 318 317
207 208 210 211 213 214 217 220 222 223 224 225 226 226 227 228 229 232 234 236 237 238 241 243 245 247 249 253 256 259 262 265 267 268 266 265 265 267 269 271 274 280 285 284 283 284 285 287 286 282 282 287 290 289 289 293 296 296 299 303 305 306 309 313 315 316 318 320 320 321 322 321 321 321 320 321 321 321 322 323 320 316 317 317 316
207 208 209 211 212 214 216 219 222 223 224 224 225 226 226 227 229 232 234 236 238 240 242 244 245 248 251 255 259 262 265 267 267 266 265 264 265 266 268 270 272 279 284 283 280 273 270 275 277 269 269 277 281 283 287 291 293 295 298 300 300 301 303 308 312 314 316 317 319 320 320 321 321 321 321 321 321 319 321 322 319 316 317 317 317
207 208 210 211 212 214 216 219 221 222 223 223 224 224 224 225 227 230 233 236 238 241 243 245 248 250 253 257 260 263 266 266 265 264 263 264 264 265 266 267 272 280 284 280 274 264 260 266 270 262 262 271 277 280 284 286 289 294 296 295 295 296 299 304 308 311 314 316 317 318 319 320 322 321 321 321 320 319 320 321 319 317 317 317 317
207 209 210 211 212 213 215 218 220 222 223 224 225 225 225 225 227 229 232 235 238 241 244 247 250 252 256 259 261 265 268 265 262 262 263 262 262 262 263 266 272 280 282 276 269 263 260 264 267 263 262 269 275 278 282 285 289 291 291 292 295 296 297 301 305 309 312 314 316 316 318 320 322 321 320 320 320 320 321 321 319 317 317 317 317
207 209 211 211 212 213 215 217 220 222 224 225 226 227 227 227 228 230 232 235 237 241 245 249 254 258 260 262 263 266 267 263 259 260 260 259 260 262 264 270 276 280 280 272 266 266 266 267 268 268 268 270 273 276 280 284 287 288 289 292 294 294 295 299 304 308 310 312 314 315 317 320 321 320 319 319 320 321 322 321 319 318 317 316 317
207 210 211 212 213 214 215 217 219 221 224 225 227 228 229 230 230 231 233 235 237 240 246 253 259 263 264 263 263 263 262 258 257 257 257 258 261 264 267 273 278 280 277 273 271 272 271 267 263 264 268 270 272 275 279 282 284 285 287 289 290 291 294 299 304 307 309 310 312 314 316 319 320 319 318 318 320 322 322 320 318 317 316 316 317
207 209 211 213 214 214 215 216 218 220 222 224 226 228 230 231 231 232 234 235 236 239 243 248 255 261 263 261 258 257 256 255 254 254 255 258 261 266 271 276 279 279 276 274 273 271 266 259 256 261 267 268 268 272 277 279 281 282 284 286 288 291 295 300 303 305 307 308 311 313 315 318 318 317 317 318 320 321 320 318 315 315 315 316 317
208 210 211 212 214 215 216 217 218 219 222 224 225 228 230 231 232 234 235 236 238 240 240 240 245 254 258 257 254 254 255 255 253 252 255 259 263 269 274 277 279 278 276 277 276 272 266 262 262 267 270 268 269 273 277 278 278 280 283 285 288 292 296 300 302 304 305 307 310 312 314 317 317 316 316 318 319 319 318 316 314 314 315 316 316
208 210 211 212 213 215 217 218 220 221 223 224 226 228 230 231 233 234 234 236 239 238 232 230 235 242 246 249 250 253 255 256 255 254 257 261 266 271 276 279 279 278 278 280 278 272 268 267 266 268 268 268 270 274 276 277 279 281 284 286 290 294 297 300 301 303 305 307 310 312 314 316 317 316 316 316 317 317 316 314 313 314 315 315 316
210 211 212 213 214 215 217 218 221 223 224 226 227 228 230 232 233 235 236 237 237 232 226 226 232 237 239 240 240 243 249 253 254 255 258 263 268 272 274 277 281 281 281 281 278 274 270 266 263 265 266 267 270 273 275 277 279 282 285 289 293 295 298 300 301 303 305 307 309 311 314 316 317 316 315 315 315 316 314 311 310 312 313 313 314
211 213 213 214 214 215 215 217 219 221 224 226 228 229 231 233 234 237 237 235 230 226 224 229 234 237 238 236 234 235 241 246 249 251 255 261 266 270 272 274 277 280 278 275 273 272 268 260 257 260 263 265 269 274 276 278 281 284 288 291 293 295 297 299 301 302 304 306 308 311 314 316 316 315 314 314 314 314 312 309 307 309 311 310 311
211 213 214 215 215 215 214 214 216 218 220 223 226 228 229 231 232 233 231 226 222 222 225 230 234 237 239 239 237 237 241 245 248 252 256 260 264 267 270 271 272 273 271 267 267 268 266 262 260 260 261 263 268 273 276 278 282 286 288 290 292 295 297 298 299 301 303 305 308 311 314 316 316 315 314 313 312 312 311 308 307 308 310 309 309
211 212 213 215 215 216 216 215 215 215 216 217 219 222 224 224 224 223 221 220 221 224 228 232 235 237 239 241 242 245 249 251 252 255 260 263 263 264 266 268 269 269 267 263 263 264 264 264 265 265 265 267 270 273 276 279 282 285 287 289 292 294 295 296 298 300 302 304 308 312 315 316 316 315 313 311 310 309 309 309 309 310 310 309 308
210 212 213 215 216 217 218 217 216 216 215 214 215 218 221 222 221 220 220 222 225 228 231 234 236 237 239 242 248 254 256 256 258 263 266 266 265 264 264 266 268 269 268 266 265 266 266 265 264 265 267 269 272 275 279 281 282 284 286 288 290 291 293 295 297 299 301 304 309 313 316 317 316 314 311 309 307 307 308 309 310 311 310 308 308
Height
10719 10721 10726 10730 10733 10738 10741 10744 10746 10750 10753 10755 10757 10759 10761 10763 10765 10766 10767 10769 10770 10771 10773 10774 10774 10775 10776 10777 10778 10777 10776 10777 10778 10778 10778 10777 10777 10777 10778 10778 10777 10776 10776 10775 10775 10773 10772 10771 10770 10768 10767 10765 10763 10761 10759 10759 10758 10757 10755 10752 10749 10747 10745 10742 10740 10737 10735 10732 10730 10727 10725 10722 10719 10716 10712 10709 10705 10702 10699 10696 10694 10691 10688 10685 10682
10713 10718 10722 10725 10730 10734 10736 10739 10742 10745 10747 10750 10752 10754 10757 10759 10759 10761 10762 10764 10766 10767 10768 10769 10770 10770 10770 10771 10773 10772 10772 10773 10774 10774 10774 10774 10773 10773 10773 10773 10773 10772 10772 10771 10770 10769 10767 10767 10765 10764 10763 10761 10759 10757 10755 10755 10754 10753 10752 10749 10746 10743 10740 10738 10736 10733 10730 10728 10725 10723 10720 10717 10713 10710 10706 10703 10700 10697 10694 10691 10689 10686 10683 10681 10678
10709 10713 10716 10720 10725 10729 10732 10735 10738 10740 10742 10745 10748 10750 10751 10753 10753 10755 10757 10759 10761 10763 10764 10764 10765 10766 10766 10766 10767 10767 10767 10769 10770 10770 10770 10770 10769 10769 10769 10769 10768 10768 10768 10767 10766 10764 10763 10763 10761 10760 10759 10758 10756 10753 10751 10751 10750 10749 10748 10746 10743 10739 10737 10734 10732 10729 10726 10723 10720 10718 10715 10712 10708 10705 10701 10698 10695 10693 10690 10687 10684 10682 10679 10677 10674
10703 10706 10710 10716 10721 10725 10728 10730 10732 10735 10737 10740 10742 10744 10745 10746 10748 10750 10753 10755 10757 10758 10759 10760 10761 10762 10762 10762 10762 10763 10763 10764 10765 10766 10766 10766 10765 10765 10765 10765 10764 10764 10764 10763 10762 10760 10759 10759 10757 10756 10755 10754 10752 10750 10748 10747 10746 10745 10744 10742 10739 10736 10733 10730 10727 10724 10721 10718 10715 10713 10710 10707 10704 10700 10697 10694 10691 10688 10685 10683 10680 10678 10676 10673 10670
10699 10701 10706 10711 10716 10720 10722 10724 10728 10730 10732 10734 10736 10738 10739 10740 10743 10746 10748 10750 10752 10754 10755 10755 10757 10758 10758 10758 10758 10758 10758 10759 10761 10762 10762 10761 10761 10761 10761 10760 10760 10760 10760 10759 10758 10757 10756 10755 10753 10752 10751 10750 10748 10747 10745 10743 10742 10740 10739 10738 10735 10733 10730 10727 10724 10720 10717 10714 10711 10708 10705 10702 10699 10695 10692 10689 10686 10684 10681 10679 10677 10674 10672 10669 10666
10695 10697 10701 10707 10711 10713 10715 10719 10724 10726 10726 10728 10730 10732 10734 10735 10738 10741 10743 10745 10747 10749 10751 10751 10752 10754 10754 10754 10754 10754 10754 10754 10756 10758 10757 10757 10757 10757 10757 10757 10757 10757 10756 10755 10753 10753 10752 10751 10749 10748 10747 10745 10744 10744 10742 10740 10738 10736 10735 10733 10731 10729 10726 10723 10720 10717 10713 10710 10707 10704 10701 10697 10694 10691 10688 10685 10682 10680 10677 10675 10672 10670 10667 10664 10662
10691 10693 10697 10702 10705 10707 10711 10715 10719 10721 10720 10721 10724 10727 10729 10730 10733 10736 10738 10741 10743 10746 10746 10747 10748 10748 10749 10749 10749 10750 10750 10750 10752 10753 10753 10752 10753 10753 10753 10753 10753 10752 10752 10750 10749 10749 10748 10747 10745 10744 10742 10741 10740 10740 10739 10737 10734 10733 10731 10729 10727 10725 10722 10719 10717 10713 10710 10707 10703 10700 10697 10694 10691 10688 10685 10682 10679 10676 10674 10671 10668 10666 10663 10659 10656
10686 10688 10692 10697 10699 10702 10705 10709 10713 10714 10713 10716 10720 10722 10723 10725 10728 10731 10734 10737 10739 10741 10742 10742 10743 10743 10744 10745 10745 10746 10746 10746 10747 10749 10748 10748 10749 10748 10748 10749 10749 10748 10747 10745 10745 10745 10744 10742 10741 10740 10739 10738 10737 10736 10734 10733 10731 10728 10727 10725 10723 10721 10718 10715 10713 10710 10707 10703 10700 10697 10693 10690 10688 10685 10682 10679 10676 10673 10670 10667 10664 10662 10659 10655 10652
10680 10681 10685 10689 10692 10695 10698 10701 10705 10706 10708 10712 10714 10715 10717 10720 10723 10726 10729 10732 10734 10736 10737 10737 10738 10739 10740 10741 10741 10742 10742 10741 10743 10744 10744 10745 10745 10744 10744 10745 10745 10744 10743 10741 10741 10740 10739 10738 10737 10736 10735 10734 10733 10732 10730 10729 10726 10724 10722 10720 10719 10717 10714 10711 10709 10706 10703 10699 10696 10693 10690 10687 10684 10681 10678 10675 10672 10669 10666 10663 10660 10658 10655 10651 10647
10672 10675 10678 10682 10686 10689 10690 10694 10698 10701 10704 10707 10709 10711 10714 10716 10717 10720 10725 10727 10729 10730 10731 10732 10734 10736 10737 10737 10737 10738 10738 10738 10739 10740 10740 10741 10741 10740 10740 10740 10740 10740 10738 10737 10737 10736 10734 10733 10733 10732 10731 10730 10729 10728 10726 10724 10722 10720 10717 10715 10714 10712 10709 10707 10704 10701 10698 10695 10692 10688 10685 10682 10679 10676 10673 10670 10667 10665 10662 10659 10656 10653 10650 10647 10643
10664 10668 10671 10675 10678 10682 10684 10688 10693 10696 10700 10703 10704 10707 10709 10709 10710 10715 10719 10721 10723 10724 10726 10728 10730 10732 10733 10732 10732 10733 10734 10734 10735 10736 10736 10737 10736 10735 10735 10735 10736 10735 10734 10734 10733 10732 10731 10730 10729 10728 10727 10726 10725 10724 10722 10720 10718 10716 10713 10711 10708 10706 10704 10701 10698 10696 10692 10689 10686 10683 10680 10677 10674 10671 10668 10666 10663 10660 10658 10655 10652 10649 10646 10642 10638
10656 10660 10664 10667 10670 10675 10678 10682 10686 10691 10696 10698 10699 10701 10702 10703 10706 10710 10713 10715 10717 10720 10722 10723 10725 10728 10728 10728 10728 10729 10730 10730 10731 10732 10732 10732 10731 10730 10730 10731 10732 10731 10731 10730 10729 10728 10727 10726 10725 10724 10723 10722 10721 10719 10717 10715 10713 10711 10709 10707 10704 10702 10699 10696 10693 10690 10687 10683 10681 10678 10675 10672 10669 10666 10664 10661 10658 10656 10653 10650 10647 10644 10641 10637 10634
10648 10652 10656 10659 10663 10668 10672 10676 10679 10685 10691 10692 10693 10695 10696 10698 10701 10704 10707 10709 10713 10716 10717 10719 10721 10723 10723 10724 10724 10725 10725 10726 10727 10728 10728 10728 10726 10726 10726 10727 10727 10727 10727 10726 10725 10724 10722 10721 10721 10720 10718 10717 10716 10715 10713 10711 10708 10706 10704 10702 10700 10697 10694 10691 10688 10685 10682 10679 10676 10673 10670 10668 10665 10662 10659 10657 10654 10651 10649 10646 10643 10639 10636 10632 10629
10641 10645 10649 10653 10657 10661 10665 10668 10673 10680 10683 10684 10687 10689 10690 10692 10694 10698 10702 10705 10709 10711 10712 10714 10716 10718 10719 10720 10720 10721 10721 10722 10723 10723 10724 10723 10722 10721 10721 10722 10722 10722 10723 10722 10720 10719 10718 10717 10716 10715 10714 10712 10711 10709 10708 10706 10704 10702 10700 10697 10694 10692 10689 10686 10683 10680 10677 10674 10671 10669 10666 10663 10660 10658 10655 10652 10650 10647 10644 10641 10638 10634 10631 10627 10623
10636 10639 10643 10647 10651 10654 10657 10662 10667 10673 10676 10678 10682 10683 10683 10685 10687 10692 10698 10701 10704 10706 10708 10709 10711 10714 10715 10715 10716 10716 10717 10717 10718 10718 10719 10719 10718 10717 10717 10718 10717 10718 10720 10719 10716 10715 10714 10712 10711 10710 10709 10707 10706 10704 10702 10701 10699 10697 10695 10692 10690 10687 10684 10681 10678 10675 10672 10669 10667 10664 10661 10659 10656 10653 10650 10648 10645 10642 10639 10636 10633 10630 10626 10622 10617
10630 10634 10638 10642 10644 10648 10652 10656 10661 10665 10669 10673 10677 10677 10676 10677 10682 10688 10693 10696 10699 10701 10703 10704 10706 10709 10710 10710 10711 10712 10712 10712 10713 10713 10714 10715 10714 10712 10712 10713 10713 10713 10715 10715 10713 10712 10711 10709 10707 10706 10705 10703 10701 10699 10697 10696 10694 10692 10690 10687 10685 10682 10680 10677 10674 10671 10668 10665 10662 10660 10657 10654 10652 10649 10646 10643 10640 10637 10634 10631 10628 10624 10621 10617 10613
10621 10626 10631 10635 10638 10642 10646 10651 10656 10660 10663 10667 10670 10669 10668 10670 10677 10683 10687 10691 10694 10696 10698 10700 10702 10704 10705 10705 10706 10706 10707 10707 10708 10708 10709 10710 10710 10708 10708 10707 10707 10708 10709 10710 10709 10709 10707 10705 10703 10702 10701 10699 10697 10695 10693 10691 10689 10687 10684 10682 10680 10678 10675 10673 10670 10667 10664 10661 10658 10656 10653 10650 10648 10645 10642 10639 10636 10632 10629 10625 10622 10619 10615 10612 10608
10612 10618 10623 10627 10632 10637 10641 10645 10650 10654 10657 10660 10660 10660 10661 10666 10673 10679 10683 10686 10689 10692 10694 10696 10697 10698 10699 10700 10700 10701 10702 10702 10703 10703 10704 10705 10705 10704 10703 10702 10702 10703 10703 10704 10704 10704 10702 10701 10699 10698 10697 10695 10693 10692 10689 10687 10685 10682 10679 10677 10675 10673 10671 10669 10666 10663 10660 10657 10655 10652 10649 10647 10644 10641 10638 10635 10631 10628 10624 10621 10617 10614 10610 10607 10604
10605 10612 10617 10622 10627 10631 10635 10639 10643 10647 10650 10651 10651 10654 10659 10665 10670 10674 10678 10681 10684 10688 10690 10691 10692 10692 10694 10695 10695 10695 10697 10697 10698 10699 10699 10700 10699 10699 10698 10698 10698 10698 10698 10699 10699 10698 10697 10696 10694 10693 10692 10691 10689 10687 10685 10683 10680 10677 10675 10673 10671 10669 10667 10664 10661 10659 10656 10653 10651 10648 10645 10643 10640 10637 10634 10630 10627 10623 10620 10617 10613 10610 10606 10602 10599
10598 10606 10612 10617 10622 10626 10630 10633 10637 10641 10642 10644 10646 10652 10658 10662 10665 10669 10672 10676 10680 10683 10684 10685 10685 10686 10688 10690 10690 10690 10692 10692 10693 10694 10694 10694 10694 10694 10694 10693 10693 10693 10694 10694 10694 10694 10692 10691 10689 10688 10687 10685 10684 10682 10680 10678 10676 10673 10671 10669 10667 10665 10662 10660 10657 10654 10652 10649 10646 10644 10641 10638 10635 10632 10629 10626 10623 10619 10616 10613 10609 10605 10601 10597 10594
10592 10599 10607 10613 10617 10621 10625 10627 10630 10632 10635 10640 10645 10649 10654 10658 10662 10665 10667 10671 10674 10676 10677 10678 10679 10681 10683 10684 10684 10685 10687 10687 10688 10689 10689 10689 10688 10689 10688 10688 10688 10689 10690 10689 10689 10689 10687 10686 10685 10683 10682 10680 10678 10677 10675 10673 10671 10669 10667 10665 10663 10661 10658 10656 10653 10650 10648 10645 10642 10640 10636 10633 10631 10628 10625 10621 10618 10615 10612 10609 10605 10600 10597 10592 10589
10585 10594 10601 10607 10612 10617 10620 10622 10624 10627 10633 10638 10642 10645 10650 10654 10657 10659 10663 10666 10668 10670 10671 10672 10674 10676 10677 10679 10680 10681 10682 10683 10684 10685 10684 10684 10683 10683 10683 10683 10684 10685 10685 10684 10684 10683 10682 10681 10680 10678 10677 10675 10674 10673 10671 10669 10667 10665 10663 10661 10659 10657 10655 10652 10649 10647 10644 10641 10638 10635 10632 10629 10626 10623 10621 10617 10614 10610 10608 10604 10600 10596 10592 10588 10584
10579 10588 10595 10602 10607 10611 10613 10616 10620 10626 10631 10634 10636 10641 10645 10648 10651 10655 10658 10660 10662 10664 10665 10667 10669 10671 10672 10674 10675 10676 10677 10678 10679 10680 10680 10679 10678 10678 10678 10679 10679 10680 10680 10679 10679 10678 10677 10676 10675 10673 10672 10671 10670 10668 10666 10665 10663 10661 10659 10657 10655 10653 10651 10648 10646 10643 10640 10637 10634 10631 10628 10625 10622 10619 10616 10613 10609 10606 10603 10600 10596 10592 10588 10584 10580
10573 10582 10590 10596 10600 10603 10607 10612 10618 10624 10627 10629 10633 10637 10641 10644 10648 10651 10653 10654 10657 10659 10660 10663 10665 10666 10667 10669 10670 10671 10673 10674 10675 10675 10675 10674 10674 10674 10674 10674 10675 10675 10675 10674 10673 10673 10672 10671 10670 10669 10668 10667 10665 10664 10662 10661 10659 10657 10655 10653 10652 10649 10647 10644 10642 10639 10636 10633 10630 10627 10624 10621 10618 10615 10612 10608 10604 10601 10598 10595 10591 10588 10583 10579 10576
10567 10576 10584 10589 10594 10597 10602 10608 10615 10619 10622 10625 10629 10632 10636 10640 10643 10645 10647 10649 10652 10654 10656 10659 10660 10662 10663 10664 10665 10666 10668 10669 10670 10671 10671 10670 10670 10671 10670 10670 10670 10670 10670 10669 10669 10668 10667 10666 10665 10664 10663 10662 10660 10659 10658 10656 10654 10653 10651 10649 10647 10645 10642 10640 10637 10635 10632 10629 10627 10623 10620 10617 10614 10611 10607 10604 10600 10597 10593 10590 10586 10583 10578 10574 10571
10561 10569 10576 10582 10587 10592 10598 10604 10609 10612 10615 10619 10623 10628 10632 10635 10638 10640 10642 10645 10647 10650 10652 10654 10655 10658 10659 10659 10661 10662 10663 10665 10666 10666 10666 10666 10667 10667 10666 10666 10666 10666 10666 10665 10664 10664 10663 10662 10661 10660 10659 10657 10656 10654 10653 10652 10650 10648 10646 10644 10642 10640 10638 10636 10633 10631 10628 10625 10622 10619 10616 10613 10610 10607 10603 10599 10595 10592 10588 10585 10581 10577 10573 10569 10566
10556 10564 10570 10576 10582 10588 10595 10598 10601 10604 10608 10612 10617 10622 10627 10630 10633 10635 10638 10640 10643 10646 10648 10649 10651 10653 10654 10655 10657 10658 10660 10661 10661 10662 10662 10662 10663 10662 10662 10662 10663 10663 10662 10661 10660 10659 10658 10657 10656 10655 10654 10652 10651 10650 10648 10647 10645 10643 10642 10640 10638 10636 10634 10631 10629 10626 10624 10621 10618 10615 10612 10609 10606 10602 10599 10595 10591 10587 10583 10580 10576 10572 10568 10564 10561
10551 10558 10565 10571 10578 10584 10589 10591 10594 10598 10601 10605 10611 10616 10622 10626 10628 10631 10634 10637 10640 10641 10643 10645 10647 10649 10650 10651 10653 10655 10656 10657 10657 10658 10658 10658 10659 10658 10658 10659 10658 10658 10658 10657 10656 10655 10654 10653 10652 10651 10649 10648 10647 10645 10644 10642 10641 10639 10637 10635 10633 10631 10629 10627 10624 10622 10619 10617 10613 10610 10607 10604 10601 10597 10594 10590 10586 10582 10578 10575 10571 10567 10563 10559 10555
10545 10552 10559 10566 10572 10577 10581 10584 10587 10591 10595 10600 10605 10611 10617 10621 10624 10627 10630 10633 10635 10637 10639 10641 10642 10644 10645 10647 10649 10651 10652 10652 10653 10654 10654 10655 10655 10655 10655 10655 10654 10654 10653 10652 10652 10650 10649 10648 10647 10646 10645 10643 10642 10640 10639 10638 10637 10635 10633 10631 10629 10627 10625 10623 10620 10618 10615 10612 10608 10605 10602 10598 10595 10591 10588 10585 10581 10577 10574 10570 10566 10562 10558 10554 10550
10540 10547 10554 10560 10566 10571 10574 10576 10580 10586 10591 10596 10601 10606 10611 10615 10619 10622 10625 10628 10631 10632 10634 10636 10638 10639 10641 10643 10646 10647 10647 10648 10648 10649 10650 10651 10651 10651 10651 10650 10650 10649 10649 10648 10647 10646 10644 10643 10643 10642 10640 10639 10638 10636 10635 10634 10632 10631 10629 10626 10625 10623 10621 10619 10616 10614 10611 10607 10604 10600 10596 10593 10589 10586 10583 10580 10576 10572 10569 10565 10561 10557 10553 10549 10545
10535 10541 10547 10553 10560 10565 10568 10572 10577 10582 10587 10591 10595 10600 10605 10609 10614 10617 10620 10623 10626 10628 10630 10631 10633 10635 10637 10640 10641 10642 10643 10643 10644 10645 10646 10647 10647 10647 10646 10645 10645 10645 10644 10644 10643 10641 10640 10639 10638 10637 10636 10635 10633 10632 10630 10629 10628 10626 10624 10622 10620 10619 10617 10615 10613 10610 10607 10603 10600 10596 10593 10589 10586 10583 10579 10575 10571 10568 10564 10560 10556 10552 10548 10544 10540
10529 10534 10540 10547 10554 10559 10563 10567 10571 10576 10581 10585 10589 10594 10599 10604 10608 10611 10614 10617 10621 10623 10625 10626 10628 10631 10633 10635 10636 10637 10639 10639 10640 10641 10642 10643 10643 10643 10642 10641 10641 10641 10640 10639 10638 10637 10636 10635 10634 10633 10631 10630 10628 10627 10625 10624 10623 10621 10619 10618 10616 10614 10613 10611 10609 10607 10603 10600 10596 10593 10589 10586 10582 10579 10575 10570 10567 10563 10560 10556 10551 10547 10543 10538 10534
10521 10528 10534 10541 10547 10553 10557 10560 10563 10568 10573 10578 10583 10589 10594 10598 10602 10606 10609 10613 10616 10618 10620 10622 10624 10627 10629 10630 10631 10633 10634 10634 10635 10637 10638 10639 10639 10638 10637 10637 10637 10637 10636 10635 10634 10633 10632 10631 10630 10628 10626 10625 10624 10623 10621 10620 10619 10617 10615 10613 10611 10610 10608 10607 10605 10603 10600 10596 10593 10589 10585 10581 10578 10574 10570 10566 10562 10558 10555 10551 10546 10541 10537 10533 10528
10514 10521 10527 10534 10540 10546 10550 10553 10555 10560 10565 10570 10577 10583 10588 10593 10598 10603 10606 10609 10611 10614 10616 10618 10620 10622 10624 10625 10627 10628 10629 10629 10630 10632 10634 10634 10634 10633 10633 10633 10633 10633 10632 10631 10630 10628 10627 10626 10625 10623 10621 10621 10620 10619 10617 10616 10614 10613 10611 10609 10607 10605 10603 10601 10600 10598 10595 10592 10589 10585 10581 10577 10573 10570 10566 10561 10557 10552 10550 10546 10541 10536 10531 10527 10523
10507 10514 10520 10527 10533 10539 10542 10545 10548 10552 10558 10564 10570 10575 10581 10588 10594 10597 10601 10604 10606 10609 10611 10613 10615 10617 10619 10620 10622 10623 10624 10625 10626 10628 10629 10629 10629 10629 10628 10629 10629 10629 10629 10628 10626 10624 10622 10622 10621 10619 10617 10616 10615 10614 10613 10611 10610 10609 10607 10604 10602 10600 10598 10597 10596 10594 10591 10588 10584 10581 10577 10573 10569 10565 10561 10557 10552 10547 10543 10539 10534 10529 10524 10520 10516
10499 10507 10514 10520 10526 10531 10534 10537 10541 10546 10553 10560 10566 10571 10577 10584 10588 10592 10596 10599 10601 10604 10606 10607 10610 10612 10613 10615 10616 10618 10620 10621 10621 10623 10624 10624 10623 10624 10624 10625 10625 10625 10625 10624 10623 10620 10618 10617 10616 10615 10613 10612 10611 10609 10608 10606 10606 10604 10602 10600 10597 10595 10593 10593 10592 10589 10586 10583 10580 10576 10572 10568 10565 10561 10557 10553 10548 10542 10537 10532 10527 10522 10518 10515 10511
10493 10501 10507 10513 10518 10523 10527 10530 10535 10541 10549 10556 10563 10569 10575 10581 10585 10589 10591 10593 10596 10598 10600 10602 10604 10606 10608 10610 10612 10614 10616 10616 10617 10618 10618 10618 10618 10619 10620 10621 10622 10621 10621 10620 10620 10617 10614 10613 10612 10610 10608 10607 10606 10605 10603 10602 10601 10599 10597 10594 10591 10589 10588 10587 10585 10583 10580 10578 10575 10572 10568 10564 10561 10557 10552 10547 10543 10538 10533 10527 10522 10516 10512 10509 10506
10487 10494 10500 10505 10510 10515 10520 10524 10528 10536 10544 10552 10558 10565 10571 10576 10580 10583 10584 10588 10591 10593 10594 10596 10598 10600 10603 10605 10607 10610 10611 10612 10612 10613 10613 10613 10614 10615 10616 10617 10617 10617 10616 10616 10616 10614 10612 10612 10612 10609 10605 10603 10602 10600 10599 10598 10597 10595 10593 10589 10585 10583 10583 10582 10580 10578 10576 10574 10571 10567 10564 10560 10556 10551 10547 10542 10537 10533 10529 10523 10517 10512 10508 10504 10501
10481 10487 10493 10497 10502 10508 10515 10519 10524 10531 10539 10546 10552 10558 10564 10570 10574 10576 10579 10583 10585 10586 10587 10590 10593 10596 10599 10601 10604 10606 10607 10608 10608 10608 10608 10609 10610 10611 10612 10612 10612 10613 10612 10612 10612 10610 10609 10610 10611 10609 10603 10599 10597 10596 10595 10594 10593 10591 10590 10587 10583 10581 10580 10578 10576 10574 10572 10569 10566 10563 10559 10556 10551 10547 10542 10537 10532 10528 10524 10518 10512 10507 10503 10500 10496
10476 10482 10487 10492 10499 10506 10512 10515 10519 10525 10531 10538 10544 10551 10557 10563 10566 10571 10576 10578 10578 10579 10581 10585 10589 10593 10595 10597 10600 10602 10603 10603 10602 10602 10604 10605 10606 10607 10607 10606 10608 10609 10609 10609 10609 10607 10605 10605 10607 10604 10598 10593 10592 10591 10590 10590 10589 10587 10586 10585 10583 10580 10577 10575 10573 10570 10568 10565 10561 10559 10556 10552 10547 10542 10538 10533 10528 10523 10519 10514 10508 10503 10499 10495 10492
10471 10476 10481 10488 10495 10502 10506 10511 10515 10520 10527 10533 10539 10546 10551 10555 10561 10567 10570 10570 10570 10573 10577 10581 10585 10588 10591 10594 10596 10597 10597 10597 10597 10598 10600 10601 10602 10601 10601 10601 10603 10605 10605 10605 10605 10604 10601 10600 10600 10598 10593 10590 10588 10587 10585 10584 10584 10583 10582 10580 10579 10576 10573 10571 10569 10566 10563 10560 10557 10554 10552 10548 10543 10539 10534 10529 10524 10518 10513 10508 10503 10499 10495 10491 10487
10466 10470 10476 10483 10490 10496 10501 10507 10512 10518 10524 10529 10535 10540 10544 10549 10557 10562 10561 10562 10566 10570 10572 10576 10579 10583 10586 10589 10591 10592 10592 10591 10591 10593 10594 10596 10597 10596 10596 10596 10597 10599 10601 10602 10600 10600 10598 10595 10594 10592 10589 10587 10584 10581 10579 10579 10579 10578 10577 10575 10573 10571 10568 10566 10564 10561 10558 10555 10552 10549 10546 10543 10539 10534 10529 10524 10519 10513 10508 10503 10498 10495 10491 10488 10483
10460 10465 10472 10479 10484 10489 10496 10502 10508 10514 10519 10524 10529 10534 10538 10545 10552 10553 10553 10556 10562 10565 10567 10571 10574 10577 10580 10583 10585 10585 10584 10585 10585 10587 10589 10591 10592 10591 10591 10591 10591 10593 10595 10596 10595 10595 10594 10592 10589 10587 10586 10584 10580 10576 10575 10575 10575 10574 10572 10570 10568 10566 10564 10562 10559 10556 10553 10550 10547 10545 10542 10539 10534 10530 10524 10519 10514 10509 10503 10498 10494 10491 10487 10484 10479
10456 10462 10468 10474 10479 10484 10490 10496 10503 10508 10513 10518 10523 10527 10532 10539 10543 10544 10547 10552 10555 10559 10563 10566 10570 10573 10574 10576 10577 10577 10577 10578 10579 10580 10583 10585 10586 10586 10586 10586 10585 10586 10587 10588 10588 10588 10588 10587 10585 10583 10583 10580 10575 10571 10572 10572 10570 10569 10566 10564 10563 10561 10560 10558 10555 10552 10548 10545 10543 10541 10538 10534 10530 10525 10520 10515 10510 10505 10499 10494 10490 10487 10483 10479 10475
10452 10457 10462 10467 10474 10480 10486 10492 10499 10503 10507 10512 10517 10521 10527 10531 10533 10537 10542 10547 10550 10556 10561 10566 10570 10570 10569 10569 10570 10571 10571 10572 10573 10575 10578 10579 10580 10581 10580 10580 10580 10580 10580 10581 10582 10582 10582 10583 10581 10579 10578 10574 10569 10567 10567 10566 10564 10563 10561 10559 10558 10556 10554 10552 10549 10546 10543 10541 10538 10536 10533 10529 10525 10519 10514 10509 10505 10500 10495 10491 10486 10483 10479 10475 10471
10446 10451 10456 10463 10470 10477 10483 10490 10496 10500 10504 10508 10512 10516 10520 10523 10525 10531 10536 10541 10547 10554 10558 10561 10563 10561 10560 10562 10566 10566 10566 10566 10567 10570 10572 10574 10575 10575 10575 10576 10577 10576 10574 10574 10575 10575 10577 10579 10576 10572 10569 10567 10563 10561 10561 10560 10559 10557 10555 10553 10552 10550 10548 10545 10542 10540 10537 10535 10533 10531 10528 10524 10519 10514 10509 10504 10500 10496 10491 10486 10482 10478 10475 10471 10466
10443 10448 10454 10461 10467 10474 10480 10486 10491 10496 10500 10504 10507 10511 10513 10515 10519 10525 10532 10538 10545 10549 10551 10553 10553 10553 10555 10559 10561 10561 10560 10559 10561 10564 10566 10568 10569 10570 10570 10572 10573 10572 10569 10567 10566 10568 10571 10574 10569 10563 10560 10559 10557 10556 10556 10555 10554 10551 10549 10547 10546 10544 10541 10539 10536 10533 10531 10529 10528 10526 10523 10519 10514 10509 10504 10499 10495 10491 10486 10481 10477 10473 10470 10466 10461
10441 10447 10453 10459 10465 10470 10475 10480 10485 10490 10494 10498 10501 10504 10507 10511 10516 10522 10529 10535 10539 10541 10544 10546 10547 10549 10552 10554 10555 10555 10553 10553 10556 10559 10561 10563 10563 10564 10565 10568 10569 10568 10564 10560 10558 10560 10564 10565 10560 10554 10553 10553 10552 10552 10552 10550 10548 10546 10544 10542 10539 10537 10536 10533 10530 10527 10525 10523 10522 10521 10518 10513 10508 10503 10498 10493 10489 10486 10481 10476 10472 10468 10464 10460 10456
10437 10444 10451 10456 10460 10464 10468 10472 10477 10482 10486 10490 10494 10497 10502 10506 10512 10517 10522 10526 10530 10533 10536 10538 10541 10545 10548 10549 10551 10552 10550 10551 10555 10557 10558 10558 10558 10558 10560 10562 10563 10563 10561 10557 10554 10554 10556 10555 10552 10549 10548 10549 10548 10547 10547 10545 10543 10540 10538 10536 10534 10531 10529 10527 10524 10522 10519 10517 10516 10515 10512 10507 10502 10497 10492 10487 10483 10480 10476 10471 10466 10462 10458 10455 10451
10432 10438 10444 10450 10454 10458 10463 10467 10471 10475 10480 10484 10487 10491 10494 10499 10504 10509 10513 10518 10522 10526 10530 10533 10537 10540 10543 10546 10550 10551 10551 10552 10553 10553 10553 10553 10551 10552 10553 10554 10555 10557 10557 10554 10552 10551 10550 10549 10547 10545 10544 10544 10543 10543 10542 10540 10537 10535 10533 10531 10528 10526 10524 10521 10519 10516 10513 10511 10510 10508 10505 10501 10496 10491 10486 10482 10477 10473 10470 10466 10461 10456 10452 10449 10445
10427 10433 10439 10445 10450 10455 10459 10463 10467 10471 10475 10479 10482 10485 10488 10493 10498 10503 10508 10513 10518 10523 10526 10528 10531 10534 10539 10545 10550 10551 10549 10548 10548 10548 10547 10546 10545 10545 10546 10546 10548 10550 10550 10548 10547 10546 10545 10544 10542 10541 10540 10539 10538 10538 10537 10534 10531 10529 10527 10525 10522 10520 10518 10516 10514 10511 10507 10504 10503 10501 10498 10493 10489 10485 10481 10476 10472 10468 10464 10460 10455 10450 10446 10443 10439